星链-32241 (STARLINK-32241)

导读

STARLINK-32241是美国SpaceX公司于2024年8月12日发射的星链(Starlink)卫星,属于第二代星链星座,运行在近地轨道(LEO),承担全球宽带互联网服务任务。星链星座依托低轨布局,可实现低时延高速互联,为地面基础设施欠缺区域提供网络覆盖。STARLINK-32241配备相控阵天线与激光星间链路,依托氪离子推进系统完成轨道维持与自主避碰,助力星链网络扩展覆盖,支撑全球高速互联网接入服务。

基本信息
目录编号:
60437
目录名称:
STARLINK-32241
国际标识:
2024-144N
轨道中心:
EARTH
卫星名称:
星链-32241 (STARLINK-32241)
卫星全名:
星链-32241 (STARLINK-32241)
卫星状态:
在轨 (已飞行674 天)
发射日期:
2024-08-12 UTC
国别 :
美国 (US)
星等 :
--
轨道信息
数据来源 国际轨道数据 AOE轨道数据
星历时间 2026-06-17T11:09:22+0800
19小时前
查看轨道信息
2026-06-15T18:00:00+0800
2天前
查看轨道信息
半长轴 6840.865km 6840.862km
偏心率 0.0001493 0.0001105
轨道倾角 53.162° 53.154°
近地点辐角 104.410° 106.353°
升交点赤经 113.859° 121.870°
平近点角 255.707° 136.059°
近地点 461.706km 461.969km
远地点 463.75km 463.481km
周期 93.848分钟 93.848分钟
每日圈数 15.343917 15.343929
详细信息
卫星平台:
Starlink v2.0 mini
运营商:
太空探索技术公司
运营商所在国:
美国
制造商(研发单位):
太空探索技术公司
制造商所在国:
美国
使用方式:
暂无
卫星简介
星链(Starlink)计划是由太空探索技术公司(SpaceX)提出的一个巨型低轨卫星互联网星座项目,计划在2019年至2024年间在太空搭建由约1.2万颗卫星组成的“星链”网络,其中1584颗将部署在地球上空550千米处的近地轨道,并从2020年开始工作。该卫星仍在工作。
2D轨道图
3D轨道图
轨道高度分析图
轨道倾角分析图
轨道综合分析图
查看轨道综合分析图